Regional Weather Roundup
Issued by NWS

Home | Current Version | Previous Version | Text Only | Print | Product List | Glossary On
Versions: 1 2 3 4 5 6 7 8 9 10 11 12 13 14 15 16 17 18 19 20 21 22 23 24 25 26 27 28 29 30 31 32 33 34 35 36 37 38 39 40 41 42 43 44 45 46 47 48 49 50
000
ASUS43 KDTX 262001
RWRMI
MICHIGAN HOURLY REGIONAL WEATHER ROUNDUP
NATIONAL WEATHER SERVICE DETROIT/PONTIAC MI
400 PM EDT SUN MAR 26 2017

NOTE: "FAIR" INDICATES FEW OR NO CLOUDS BELOW 12,000 FEET WITH NO
SIGNIFICANT WEATHER AND/OR OBSTRUCTION TO VISIBILITY.

MIZ047>049-052>055-059>063-066>070-074>076-081>083-262100-
SOUTHEAST LOWER MICHIGAN

CITY           SKY/WX    TMP DP  RH WIND       PRES   REMARKS
ADRIAN         LGT RAIN  50  48  93 CALM      29.90F FOG
ALMA           CLOUDY    47  46  96 NE6       29.89F
ANN ARBOR      CLOUDY    50  49  96 E5        29.90F FOG
BAD AXE        LGT RAIN  43  42  95 E5        29.92F
CARO           DRIZZLE   47  47  97 SE8       29.90S
DETROIT CITY   CLOUDY    46  46 100 SE9       29.93F FOG
DETROIT        CLOUDY    51  48  89 E5        29.92F FOG
FLINT          LGT RAIN  49  48  97 S6        29.91R FOG
GROSSE ILE     CLOUDY    49  47  92 CALM      29.91F
HILLSDALE      LGT RAIN  50  48  93 S8        29.87F
HOWELL         CLOUDY    50  48  90 SE9       29.89F

CITY           SKY/WX    TMP DP  RH WIND       PRES   REMARKS
JACKSON        CLOUDY    52  49  89 S9        29.88F
LAMBERTVILLE   LGT RAIN  50  46  87 E5        29.90S
LANSING        CLOUDY    53  48  83 SE7       29.88F
LAPEER         DRIZZLE   48  47  96 SE8       29.91F
MASON          CLOUDY    52  50  93 S8        29.89S
MONROE         CLOUDY    47  45  91 E6        29.91F
MT. CLEMENS    LGT RAIN  45  45 100 E3        29.90F FOG
PONTIAC        CLOUDY    47  45  93 SE6       29.90F FOG
PORT HOPE        N/A     35  34  96 SE6       29.93F WCI  30
TRI CITIES     LGT RAIN  43  43 100 VRB5      29.91R FOG
MIDLAND        DRIZZLE   42  41  95 CALM      29.91R
TROY           CLOUDY    47  45  90 E6        29.93F FOG
SAGINAW HB     DRIZZLE   48  45  87 E6        29.88F
$$
MIZ043>046-050>051-056>058-064>065-071>073-077>080-262100-
SOUTHWEST LOWER MICHIGAN

CITY           SKY/WX    TMP DP  RH WIND       PRES   REMARKS
BATTLE CREEK   CLOUDY    54  51  90 S8        29.86F
BENTON HARBOR  CLOUDY    57  54  89 SE6       29.83F
BIG RAPIDS     CLOUDY    43  40  91 SE6       29.87F FOG
COLDWATER      PTSUNNY   55  52  90 S8        29.86F
FREMONT        DRIZZLE   46  45  98 E8        29.85F
HOLLAND        CLOUDY    55  52  89 SE6       29.84F
GRAND RAPIDS   CLOUDY    50  50 100 E6        29.86F
IONIA          CLOUDY    50  49  93 E6        29.87S
KALAMAZOO      CLOUDY    56  50  80 SE8       29.86F
LUDINGTON      LGT RAIN  46  46  98 E8        29.84F
MARSHALL       CLOUDY    55  53  93 S6        29.87S
MOUNT PLEASANT DRIZZLE   41  40  96 NE5       29.89F
MUSKEGON       LGT RAIN  49  47  93 E10       29.85F FOG
SOUTH HAVEN    RAIN      55  54  97 SE3       29.83F
$$
MIZ016>042-262100-
NORTHERN LOWER MICHIGAN

CITY           SKY/WX    TMP DP  RH WIND       PRES   REMARKS
ALPENA         LGT RAIN  36  36 100 SE13      29.96F FOG     WCI  27
BEAVER ISLAND  CLOUDY    35  35 100 E10       29.90F FOG     WCI  27
BELLAIRE       CLOUDY    45  41  86 CALM      29.88F
CADILLAC       RAIN      40  39  97 SE7       29.86F
CHARLEVOIX     CLOUDY    41  40  97 E9        29.90F
FRANKFORT      FOG       47  44  90 SE3       29.86S VSB 1
GAYLORD        LGT RAIN  42  38  85 SE10      29.88F FOG
GRAYLING       LGT RAIN  41  39  93 E7        29.88F
HARBOR SPRINGS CLOUDY    38  38  99 E12       29.90F FOG     WCI  30
HOUGHTON LAKE  LGT RAIN  41  39  93 E7        29.88F
MANISTEE       RAIN      47  45  93 E6        29.85F FOG
OSCODA         LGT SNOW  38  37  95 E5        29.94F WCI  34
PELLSTON       CLOUDY    38  35  89 E7        29.92F WCI  33
ROGERS CITY    LGT SNOW  37  34  92 E12       29.93  WCI  29
TRAVERSE CITY  LGT RAIN  48  42  80 S8        29.87S
$$
MIZ007>008-015-262100-
EASTERN UPPER MICHIGAN

CITY           SKY/WX    TMP DP  RH WIND       PRES   REMARKS
KINROSS        MIX PCPN  32  31  96 SE17      29.95F FOG     WCI  21
MACKINAC ISLAN CLOUDY    33  33 100 E17G25    29.92F FOG     WCI  22
NEWBERRY       CLOUDY    33  32  96 SE8       29.93R FOG     WCI  26
S. S. MARIE    CLOUDY    34  32  92 SE13      29.96F FOG     WCI  25
MUNISING         N/A     37  35  92 E5        29.90F WCI  33
$$
MIZ004>006-011>014-085-262100-
CENTRAL UPPER MICHIGAN

CITY           SKY/WX    TMP DP  RH WIND       PRES   REMARKS
ESCANABA       CLOUDY    37  36  96 NE7       29.90S WCI  32
MENOMINEE        N/A    N/A N/A N/A MISG        N/A
SAWYER-GWINN   CLOUDY    34  34 100 NE5       29.89F WCI  30
$$
MIZ001>003-009>011-084-262100-
WESTERN UPPER MICHIGAN

CITY           SKY/WX    TMP DP  RH WIND       PRES   REMARKS
IRON MOUNTAIN  CLOUDY    37  33  85 N6        29.85F WCI  32
HOUGHTON       CLOUDY    34  31  88 NE3       29.90F
COPPER HARBOR    N/A     35  33  92 SE5       29.92F WCI  31
IRONWOOD       CLOUDY    38  34  85 N6        29.90F WCI  33
$$

ABBREVIATIONS USED IN REMARKS
   TC - TEMPERATURE IN CELSIUS
  WCI - WIND CHILL INDEX
   HX - HEAT INDEX
  VSB - VISIBILITY





USA.gov is the U.S. government's official web portal to all federal, state and local government web resources and services.